Waarnemingen

Advertentie
Mijn weer
Florennes, België (6456): temperatuur & dauwpunt: 07.07.2020 19:00:00 - 13.07.2020 19:00:00 (CEST)Florennes, België (6456): windsnelheid & windstoten: 07.07.2020 19:00:00 - 13.07.2020 19:00:00 (CEST)Florennes, België (6456): windrichting: 07.07.2020 19:00:00 - 13.07.2020 19:00:00 (CEST)Florennes, België (6456): luchtdruk: 07.07.2020 19:00:00 - 13.07.2020 19:00:00 (CEST)Florennes, België (6456): zicht: 07.07.2020 19:00:00 - 13.07.2020 19:00:00 (CEST)
Datum & Tijd tt [°C] td [°C] ff [km/u] ff [kn] fx [km/u] fx [kn] dd ppp [hPa] vv [km]
13.07.2020 19:00:00 - - - - - - - - -
13.07.2020 18:00:00 22,8 6,4 4 2 18 10 N 1019,7 20
13.07.2020 17:00:00 23,3 7,7 4 2 - - N 1020,2 20
13.07.2020 16:00:00 22,5 7,4 11 6 25 14 NNW 1020,7 20
13.07.2020 15:00:00 22,8 6,9 4 2 18 10 N 1021,2 20
13.07.2020 14:00:00 22,5 8,0 4 2 - - N 1022,0 20
13.07.2020 13:00:00 21,1 7,9 4 2 22 12 N 1022,7 20
13.07.2020 12:00:00 21,2 8,5 7 4 22 12 NNO 1023,2 20
13.07.2020 11:00:00 19,5 8,9 11 6 - - N 1023,6 20
13.07.2020 10:00:00 17,8 9,7 4 2 11 6 N 1024,0 20
13.07.2020 09:00:00 14,8 9,4 4 2 7 4 N 1024,5 20
13.07.2020 08:00:00 12,1 8,9 4 2 - - N 1024,7 20
13.07.2020 07:00:00 11,3 7,6 4 2 7 4 N 1024,9 20
13.07.2020 06:00:00 10,8 7,2 7 4 7 4 NNO 1024,9 20
13.07.2020 05:00:00 11,4 7,1 7 4 - - NNO 1024,9 20
13.07.2020 04:00:00 12,0 6,9 4 2 7 4 N 1025,2 20
13.07.2020 03:00:00 12,6 6,9 4 2 7 4 N 1025,5 20
13.07.2020 02:00:00 13,0 7,0 4 2 - - N 1025,7 20
13.07.2020 01:00:00 13,6 7,3 7 4 11 6 ONO 1026,0 20
13.07.2020 00:00:00 13,6 7,5 4 2 11 6 N 1026,0 20
12.07.2020 23:00:00 14,0 7,5 7 4 - - NNO 1026,0 20
12.07.2020 22:00:00 14,8 7,8 11 6 22 12 NNO 1026,0 20
12.07.2020 21:00:00 17,2 7,6 14 8 22 12 NNO 1025,5 20
12.07.2020 20:00:00 18,9 7,6 14 8 - - NNO 1025,2 20
12.07.2020 19:00:00 19,7 8,1 14 8 25 14 NNO 1025,4 20
12.07.2020 18:00:00 19,4 7,0 11 6 25 14 NNO 1025,7 20
12.07.2020 17:00:00 20,5 8,1 14 8 - - NNO 1025,9 20
12.07.2020 16:00:00 19,8 7,6 14 8 25 14 ONO 1026,5 9
12.07.2020 15:00:00 18,9 7,2 14 8 25 14 NO 1026,7 20
12.07.2020 14:00:00 18,7 7,7 11 6 - - NO 1027,0 20
12.07.2020 13:00:00 17,8 8,3 14 8 22 12 NNO 1027,5 17
12.07.2020 12:00:00 16,9 9,5 11 6 22 12 NNO 1027,9 20
12.07.2020 11:00:00 15,1 9,8 11 6 - - NO 1028,0 20
12.07.2020 10:00:00 15,3 10,8 11 6 18 10 ONO 1028,0 17
12.07.2020 09:00:00 12,7 11,0 8 4 14 8 ONO 1028,2 7
12.07.2020 08:00:00 11,1 10,2 7 4 - - NO 1027,9 10
12.07.2020 07:00:00 9,8 9,0 4 2 7 4 N 1027,7 6
12.07.2020 06:00:00 9,3 8,8 7 4 7 4 N 1027,7 9
12.07.2020 05:00:00 9,3 8,3 4 2 - - N 1027,4 10
12.07.2020 04:00:00 9,6 8,4 7 4 7 4 N 1027,2 12
12.07.2020 03:00:00 10,4 8,2 4 2 7 4 N 1027,5 20
12.07.2020 02:00:00 11,1 8,1 4 2 - - N 1027,5 20
12.07.2020 01:00:00 11,4 8,1 7 4 14 8 N 1027,5 20
12.07.2020 00:00:00 12,5 8,6 7 4 14 8 N 1027,2 20
11.07.2020 23:00:00 13,4 9,0 7 4 - - N 1027,2 20
11.07.2020 22:00:00 14,8 9,4 11 6 18 10 N 1026,4 20
11.07.2020 21:00:00 15,0 10,0 11 6 22 12 N 1026,0 20
11.07.2020 20:00:00 16,1 9,2 11 6 - - N 1025,5 20
11.07.2020 19:00:00 17,3 8,9 14 8 22 12 N 1025,2 20
11.07.2020 18:00:00 18,4 9,1 18 10 22 12 N 1025,0 20
11.07.2020 17:00:00 17,8 7,6 11 6 - - N 1024,9 20
11.07.2020 16:00:00 18,4 7,9 5 3 25 14 NNW 1024,7 10
11.07.2020 15:00:00 17,7 8,8 11 6 22 12 NW 1025,0 20
11.07.2020 14:00:00 17,9 6,2 7 4 - - NNO 1024,9 18
11.07.2020 13:00:00 17,2 7,4 7 4 22 12 WNW 1024,7 20
11.07.2020 12:00:00 15,4 7,2 7 4 18 10 NW 1025,0 20
11.07.2020 11:00:00 15,2 8,3 11 6 - - W 1024,7 20
11.07.2020 10:00:00 14,4 8,8 7 4 14 8 NW 1024,7 18
11.07.2020 09:00:00 13,1 9,0 4 2 7 4 N 1024,4 15
11.07.2020 08:00:00 11,3 9,0 4 2 - - N 1024,0 20
11.07.2020 07:00:00 8,4 7,2 7 4 7 4 W 1024,0 19
11.07.2020 06:00:00 7,8 6,4 4 2 4 2 N 1023,7 19
11.07.2020 05:00:00 7,8 6,2 4 2 - - N 1023,2 20
11.07.2020 04:00:00 8,8 6,8 4 2 4 2 N 1022,7 20
11.07.2020 03:00:00 9,3 7,3 4 2 4 2 N 1022,7 20
11.07.2020 02:00:00 10,6 7,6 4 2 - - N 1022,3 16
11.07.2020 01:00:00 10,8 7,4 7 4 11 6 NNW 1021,8 20
11.07.2020 00:00:00 11,6 7,5 11 6 11 6 NNW 1021,2 20
10.07.2020 23:00:00 12,5 8,1 7 4 - - NNW 1020,5 20
10.07.2020 22:00:00 13,7 7,8 7 4 18 10 NNW 1019,6 20
10.07.2020 21:00:00 14,5 8,7 11 6 22 12 NNW 1018,8 20
10.07.2020 20:00:00 16,7 9,7 14 8 - - N 1018,2 15
10.07.2020 19:00:00 16,5 10,3 14 8 25 14 N 1017,7 19
10.07.2020 18:00:00 16,8 10,6 14 8 32 18 NNW 1017,2 20
10.07.2020 17:00:00 17,2 11,6 22 12 - - NNW 1016,7 15
10.07.2020 16:00:00 17,6 11,6 22 12 32 18 NNW 1016,2 15
10.07.2020 15:00:00 18,2 10,6 22 12 32 18 NW 1015,7 15
10.07.2020 14:00:00 18,0 11,6 18 10 - - WNW 1015,0 10
10.07.2020 13:00:00 16,8 12,4 18 10 32 18 WNW 1014,7 15
10.07.2020 12:00:00 17,1 13,6 18 10 32 18 W 1013,7 10
10.07.2020 11:00:00 15,9 13,6 18 10 - - WNW 1013,1 15
10.07.2020 10:00:00 16,3 13,8 18 10 32 18 WZW 1012,2 15
10.07.2020 09:00:00 15,3 13,8 22 12 29 16 WZW 1011,7 7
10.07.2020 08:00:00 15,3 13,1 22 12 - - WZW 1011,2 15
10.07.2020 07:00:00 15,1 12,9 22 12 36 19 WZW 1011,1 10
10.07.2020 06:00:00 15,1 12,8 14 8 29 16 WZW 1010,7 20
10.07.2020 05:00:00 15,3 12,8 21 11 - - WZW 1010,8 10
10.07.2020 04:00:00 15,6 12,9 14 8 22 12 WZW 1011,2 20
10.07.2020 03:00:00 15,8 13,1 11 6 22 12 WZW 1011,5 20
10.07.2020 02:00:00 15,9 13,6 14 8 - - W 1012,1 20
10.07.2020 01:00:00 17,3 14,0 18 10 25 14 WNW 1012,1 20
10.07.2020 00:00:00 19,0 14,1 7 4 14 8 WNW 1011,6 20
09.07.2020 23:00:00 19,9 13,5 7 4 - - WNW 1011,6 20
09.07.2020 22:00:00 20,7 13,2 11 6 11 6 WNW 1011,3 20
09.07.2020 21:00:00 22,2 13,6 7 4 11 6 WNW 1011,2 20
09.07.2020 20:00:00 24,8 13,6 7 4 - - WZW 1011,2 20
09.07.2020 19:00:00 24,6 12,2 14 8 29 16 ZW 1011,6 20
09.07.2020 18:00:00 24,5 12,6 22 12 32 18 ZW 1012,2 20
09.07.2020 17:00:00 23,1 13,2 18 10 - - ZW 1013,1 15
09.07.2020 16:00:00 23,4 13,3 22 12 40 21 WZW 1013,5 15
09.07.2020 15:00:00 23,2 13,1 25 14 40 21 WZW 1013,8 15
09.07.2020 14:00:00 21,5 13,6 25 14 - - WZW 1014,3 15
09.07.2020 13:00:00 20,3 14,1 22 12 36 19 ZW 1014,7 10
09.07.2020 12:00:00 20,1 14,5 22 12 40 21 WZW 1014,7 15
09.07.2020 11:00:00 18,9 15,4 24 13 - - WZW 1015,1 10
09.07.2020 10:00:00 17,0 15,3 16 9 29 16 ZW 1015,2 10
09.07.2020 09:00:00 16,2 15,1 15 8 22 12 ZW 1015,0 10
09.07.2020 08:00:00 15,4 14,9 11 6 - - ZW 1015,3 15
09.07.2020 07:00:00 15,3 14,7 14 8 29 16 ZW 1015,7 15
09.07.2020 06:00:00 15,5 14,8 18 10 29 16 WZW 1015,8 20
09.07.2020 05:00:00 15,8 15,3 11 6 - - ZZW 1015,7 16
09.07.2020 04:00:00 15,8 15,3 11 6 22 12 WZW 1015,8 19
09.07.2020 03:00:00 15,8 15,3 18 10 25 14 WZW 1015,8 20
09.07.2020 02:00:00 15,8 15,4 15 8 - - WZW 1016,2 10
09.07.2020 01:00:00 15,8 15,4 14 8 22 12 WZW 1016,5 1,7
09.07.2020 00:00:00 15,8 15,5 14 8 25 14 WZW 1016,7 3,9
08.07.2020 23:00:00 16,0 15,5 14 8 - - WZW 1016,7 20
08.07.2020 22:00:00 16,0 15,7 18 10 25 14 WZW 1016,7 1,4
08.07.2020 21:00:00 16,0 15,5 18 10 25 14 WZW 1016,7 2,6
08.07.2020 20:00:00 16,2 15,7 18 10 - - W 1016,6 4,4
08.07.2020 19:00:00 16,5 15,9 18 10 32 18 W 1016,6 10
08.07.2020 18:00:00 16,2 15,6 18 10 29 16 WZW 1016,7 2,6
08.07.2020 17:00:00 16,3 15,4 18 10 - - WZW 1017,0 10
08.07.2020 16:00:00 15,5 15,0 18 10 25 14 WZW 1017,1 2,5
08.07.2020 15:00:00 15,0 14,5 14 8 29 16 WZW 1017,0 3,5
08.07.2020 14:00:00 14,4 13,9 18 10 - - WZW 1017,0 4,0
08.07.2020 13:00:00 14,0 13,4 18 10 29 16 ZW 1016,8 10
08.07.2020 12:00:00 13,4 13,0 18 10 25 14 ZW 1017,0 4,0
08.07.2020 11:00:00 12,0 11,7 14 8 - - ZW 1016,8 3,5
08.07.2020 10:00:00 11,7 11,4 14 8 22 12 ZW 1017,0 2,5
08.07.2020 09:00:00 11,8 11,4 16 9 25 14 ZW 1016,7 2,0
08.07.2020 08:00:00 11,6 10,8 11 6 - - ZW 1016,7 6
08.07.2020 07:00:00 12,3 9,2 13 7 22 12 WZW 1016,7 10
08.07.2020 06:00:00 12,8 8,2 11 6 22 12 WZW 1016,6 20
08.07.2020 05:00:00 12,8 8,0 14 8 - - WZW 1016,8 20
08.07.2020 04:00:00 13,3 7,6 11 6 25 14 WZW 1017,2 20
08.07.2020 03:00:00 13,6 7,8 18 10 22 12 W 1017,7 20
08.07.2020 02:00:00 14,3 7,6 11 6 - - WZW 1018,0 20
08.07.2020 01:00:00 14,8 7,0 18 10 29 16 W 1018,2 20
08.07.2020 00:00:00 15,3 8,2 18 10 25 14 W 1018,3 20
07.07.2020 23:00:00 16,2 8,9 14 8 - - W 1018,3 20
07.07.2020 22:00:00 16,7 9,1 7 4 14 8 WNW 1018,1 20
07.07.2020 21:00:00 18,2 8,7 7 4 18 10 WNW 1018,0 20
07.07.2020 20:00:00 19,1 7,2 14 8 - - W 1018,1 20
07.07.2020 19:00:00 19,5 7,0 14 8 29 16 W 1018,2 20

tt = temperatuur
td = dauwpunt
ff = windsnelheid
fx = windstoten
dd = windrichting
ppp = luchtdruk
vv = zicht

Weerstations in de omgeving